Theta_e
323 323 323 323 322 323 323 322 323 323 322 322 322 321 321 320 321 321 322 322 321 322 322 322 322 321 320 318 317 317 316 317 317 318 318 318 320 319 321 324 327 328 329 329 330 331 333 333 334 334 335 335 335 334 334 334 334 334 334 334 333 333 334 334 334 334 334 334 334 334 334 334 335 335 334 334 334 334 334 335 336 336 336 336 336
323 322 322 322 322 322 323 322 322 322 322 321 320 321 320 319 319 320 319 320 319 319 320 320 320 319 319 319 318 318 317 317 318 318 319 319 320 319 320 321 324 327 328 329 329 330 332 333 334 335 335 335 335 335 334 334 334 334 334 333 332 333 333 333 333 333 333 333 334 334 334 335 335 335 334 334 334 334 334 335 335 336 335 335 335
323 323 322 321 322 322 322 322 321 322 322 322 322 321 319 319 319 318 319 319 318 319 318 319 318 319 318 318 318 318 318 319 318 319 319 319 319 319 320 320 322 324 327 329 330 330 331 332 333 334 335 335 335 335 335 334 335 334 334 333 332 333 333 332 332 333 333 333 333 333 333 333 334 335 335 334 335 335 335 335 335 335 335 334 334
325 324 323 322 321 321 321 321 321 322 322 322 321 322 321 320 320 320 319 319 319 320 319 318 318 319 319 318 318 318 317 318 318 318 318 318 318 319 320 320 320 322 325 328 329 330 331 332 333 333 334 334 335 334 334 334 334 334 333 333 333 333 333 333 333 333 333 333 334 334 334 335 335 335 336 336 336 336 335 335 335 334 333 333 333
325 324 323 322 322 321 321 321 322 323 323 322 322 321 321 320 320 320 320 319 319 319 320 319 318 318 318 318 319 318 318 318 318 319 319 319 319 319 319 320 320 320 322 324 326 329 332 333 333 333 333 334 334 334 334 334 334 333 333 333 332 333 334 334 334 334 334 334 334 335 336 336 336 336 336 336 335 335 334 334 334 333 333 333 333
326 324 324 322 322 322 321 321 322 322 322 322 322 321 320 320 319 319 319 319 317 317 317 317 317 316 317 316 316 318 318 318 318 319 319 319 320 320 320 320 320 320 320 321 322 325 330 332 333 333 333 334 334 334 333 333 333 333 333 333 334 335 335 335 334 335 335 335 336 336 336 335 335 335 335 335 334 334 333 333 333 333 333 332 332
327 325 324 323 322 321 321 322 322 322 322 321 321 321 320 320 318 318 318 316 316 316 316 316 315 316 316 316 317 317 317 317 318 318 319 319 319 319 320 320 320 320 321 320 320 322 325 329 332 333 334 334 334 332 331 332 332 332 333 333 334 335 335 335 335 335 335 335 335 335 335 335 335 335 335 334 334 334 333 333 332 332 332 332 332
326 326 324 323 322 321 321 321 322 322 321 320 321 319 319 320 319 319 316 316 315 315 315 315 315 316 316 316 317 317 317 316 317 318 318 318 319 319 320 320 320 320 318 320 320 320 322 325 329 332 333 333 333 333 332 332 332 331 332 333 334 335 334 334 334 335 335 334 335 334 334 334 334 334 334 334 333 333 332 332 331 331 331 331 331
326 326 324 323 323 322 321 322 322 321 320 320 320 319 319 319 318 318 318 315 315 315 315 315 315 316 316 316 317 316 316 316 317 317 319 318 318 319 319 320 320 317 320 320 320 320 321 321 325 329 330 330 331 333 333 332 332 333 332 333 333 334 334 334 335 334 334 334 334 334 334 334 334 334 334 333 333 332 332 331 331 331 330 330 330
326 326 325 324 323 322 321 321 321 321 320 319 319 319 319 318 317 317 318 316 315 315 315 316 316 317 316 317 317 317 317 316 317 315 316 317 318 318 319 320 320 320 319 320 320 319 320 320 322 323 325 324 327 331 333 332 333 332 332 333 333 334 334 335 335 335 335 335 335 334 334 334 333 333 332 332 332 331 331 331 331 330 330 330 331
325 325 324 324 322 322 322 321 321 321 320 318 318 318 318 318 317 317 317 317 315 315 316 316 317 317 317 317 317 318 318 318 317 317 317 318 317 318 320 320 320 320 320 320 320 320 320 320 320 319 320 320 323 327 330 331 331 330 332 333 333 334 334 334 334 335 334 335 334 334 334 332 332 331 331 331 331 331 331 330 330 330 330 330 330
326 326 325 323 323 322 321 321 321 321 320 319 318 318 317 317 317 316 316 316 316 316 316 315 315 316 315 316 317 317 317 317 317 318 317 317 318 318 318 320 320 320 320 320 321 320 320 320 317 319 319 319 319 322 324 327 327 329 331 332 333 333 334 335 335 335 334 334 335 334 332 331 331 331 332 332 331 331 331 330 330 330 330 331 330
326 326 325 323 323 322 322 321 322 321 321 320 320 319 319 318 317 316 316 316 316 317 316 315 314 313 313 313 315 316 316 316 317 317 317 318 318 318 318 318 319 319 320 320 320 321 320 320 319 319 318 317 319 319 319 324 322 326 329 331 331 332 334 335 336 336 335 335 334 333 332 331 331 331 331 331 331 331 330 330 330 330 330 330 331
325 326 326 325 323 323 322 322 322 321 321 321 320 318 318 318 318 316 317 316 315 317 317 316 313 311 310 310 312 315 316 316 316 317 317 317 318 318 319 319 319 320 320 320 320 320 320 319 319 319 319 319 319 318 317 318 320 323 326 328 330 332 333 334 335 335 334 334 334 333 332 330 330 330 330 330 330 330 330 330 330 330 330 330 331
326 325 326 326 325 323 322 322 322 321 320 320 320 319 319 318 318 317 315 316 315 316 317 317 312 311 309 307 306 307 310 314 316 317 318 318 318 318 319 319 320 320 320 319 319 318 319 319 319 319 318 319 319 319 318 318 318 321 324 326 328 331 332 333 334 334 333 333 333 331 329 329 329 330 330 329 329 329 330 330 330 330 330 331 331
326 326 326 326 325 324 323 322 322 322 321 320 320 319 319 319 318 317 316 314 314 314 316 318 316 312 307 308 303 304 303 308 311 315 318 318 318 318 319 320 320 320 319 318 318 318 319 319 319 319 320 320 320 320 320 319 320 323 324 324 325 328 331 333 333 333 332 332 331 330 330 330 330 329 329 329 329 330 330 330 330 330 330 331 331
327 326 325 325 325 325 324 323 322 322 321 320 320 320 320 320 319 318 316 315 313 314 314 316 317 317 311 305 303 303 305 305 311 312 317 317 318 319 318 319 319 319 317 317 318 319 319 319 319 320 320 321 321 321 321 321 321 320 322 324 326 327 329 332 333 333 332 331 330 329 329 329 329 329 330 330 330 330 330 330 330 331 331 331 330
328 327 326 323 324 324 324 324 323 322 322 321 320 320 319 319 320 319 317 317 315 313 313 314 316 317 316 314 310 305 304 307 309 305 312 318 318 319 319 318 319 317 317 317 318 318 318 319 319 320 320 321 321 321 321 322 320 321 319 321 328 328 329 331 332 332 332 330 329 329 329 329 330 330 330 330 330 330 330 330 330 329 330 329 329
328 328 328 326 324 324 323 324 324 324 322 321 320 320 320 319 320 319 318 317 316 313 313 313 314 316 317 317 315 313 312 310 307 306 305 311 313 316 316 317 317 317 317 318 318 318 319 319 319 320 321 322 322 322 322 322 324 323 326 326 329 330 330 330 331 330 330 330 329 329 329 329 329 329 330 330 329 329 329 328 328 328 328 328 327
328 328 328 328 326 325 324 324 324 324 323 322 321 321 320 320 319 320 319 318 317 315 314 314 313 313 316 315 315 315 312 312 311 309 305 305 308 312 315 316 316 317 318 318 318 318 319 320 320 320 320 321 322 322 321 321 320 321 323 328 329 331 331 330 330 330 330 329 329 329 328 328 328 328 328 328 328 328 327 327 327 327 326 326 326
328 327 328 328 326 326 326 324 323 323 322 322 322 321 320 319 319 319 319 318 318 317 316 315 315 314 313 314 315 314 314 313 314 313 310 307 307 311 312 313 315 317 318 319 319 319 320 320 320 319 320 321 322 322 321 320 320 320 323 328 329 330 330 330 330 329 329 328 328 328 328 328 327 328 328 328 328 327 327 326 325 325 324 324 324
328 328 327 328 327 326 326 325 324 323 322 322 322 321 321 320 320 320 319 318 319 318 317 317 317 316 316 315 313 314 313 312 313 313 313 313 310 308 312 312 311 314 317 317 318 319 319 319 318 318 320 320 321 322 321 320 320 319 320 325 329 330 330 329 329 329 328 327 327 327 327 326 326 327 327 327 327 327 327 325 324 323 323 322 321
328 327 328 327 327 326 326 325 325 324 322 322 322 322 322 321 321 321 319 319 319 319 317 317 317 317 317 316 315 314 313 312 312 313 312 311 311 312 313 313 313 312 315 318 318 319 319 319 318 318 319 319 319 320 320 320 314 315 311 315 322 326 327 328 328 327 327 326 326 326 326 327 326 325 325 324 323 323 323 322 322 322 321 320 320
327 327 327 328 327 327 326 325 324 324 324 323 323 323 323 323 322 321 321 320 320 319 319 317 317 318 318 318 317 316 316 315 315 315 313 313 313 311 312 313 313 313 312 316 318 318 318 318 318 319 318 318 319 319 319 320 317 306 309 312 317 322 325 326 326 326 326 325 324 325 325 325 325 325 324 323 323 322 322 321 321 320 319 318 318
325 326 327 327 327 326 326 325 324 324 324 324 323 323 324 324 323 322 322 321 321 320 319 319 318 318 318 320 319 318 317 318 317 316 316 315 314 312 313 312 312 310 313 313 313 317 318 318 319 319 318 318 319 319 318 319 314 303 305 308 311 315 322 324 324 324 323 323 323 323 323 323 323 323 322 322 321 320 320 319 318 317 316 316 316
324 325 327 327 326 327 326 326 326 325 324 324 324 323 323 324 324 323 323 323 323 322 321 320 320 320 320 319 319 319 319 319 318 318 316 315 314 313 312 311 313 313 311 311 313 313 314 318 319 319 318 319 319 319 318 317 313 301 303 304 307 310 314 319 320 319 319 319 319 319 320 321 322 322 321 320 319 318 317 317 315 314 315 315 314
324 325 325 326 326 327 326 326 326 326 325 324 324 324 324 323 323 323 324 324 323 323 322 322 321 321 320 320 320 320 321 321 320 319 319 317 316 315 313 311 312 313 312 312 312 314 315 316 319 318 318 318 319 319 319 317 309 300 301 307 305 305 308 312 315 315 315 314 314 315 317 319 320 319 318 317 317 317 315 314 314 314 314 314 313
321 325 325 325 326 325 325 326 326 326 326 325 324 324 324 323 323 323 323 324 323 323 323 322 322 322 322 322 321 320 322 322 322 321 321 320 318 317 316 315 312 309 308 309 310 312 313 313 315 318 318 318 319 319 315 313 310 299 302 308 305 302 304 308 311 312 312 312 313 316 316 316 317 317 317 317 316 315 314 314 314 314 313 313 313
316 321 324 325 326 325 325 326 326 326 326 325 325 324 324 324 323 323 323 324 323 323 323 323 323 323 322 322 321 321 321 322 322 322 322 321 321 320 319 317 315 312 308 307 310 311 311 315 313 314 318 317 318 318 317 314 305 302 309 308 304 300 302 306 310 311 311 313 313 313 313 314 315 316 316 317 316 315 315 314 313 313 313 313 312
314 318 321 323 325 322 325 324 324 325 325 326 325 325 324 324 324 324 324 324 323 323 323 323 323 323 322 322 322 321 322 322 322 322 322 322 321 321 320 319 317 314 312 309 308 311 310 314 316 314 315 317 317 316 316 312 302 304 310 308 302 300 301 303 308 310 311 311 309 311 313 313 314 314 315 316 316 316 314 313 313 313 313 312 311
312 314 317 320 323 324 325 323 322 323 325 325 326 325 325 324 323 324 324 324 323 323 323 323 324 323 323 322 322 322 322 322 322 322 322 322 322 321 320 320 318 317 315 313 310 312 315 311 314 316 315 316 316 315 313 309 301 306 310 305 302 298 298 300 304 306 308 308 308 309 309 311 312 314 315 315 316 315 314 312 313 312 311 309 308
312 314 315 316 318 322 324 325 324 324 323 322 324 325 325 324 324 323 324 324 323 323 323 324 324 323 323 322 322 322 322 322 322 322 322 322 322 321 321 320 319 319 318 316 313 312 312 312 314 315 315 315 314 313 308 306 302 303 308 303 300 296 297 297 300 301 304 307 307 306 307 309 310 312 313 313 314 313 313 312 311 308 307 306 302
309 311 312 314 316 318 320 322 324 324 323 322 323 325 324 324 324 324 324 323 323 323 322 322 323 323 322 322 322 322 323 321 321 322 322 322 322 321 321 320 319 319 318 316 313 312 313 309 312 314 314 314 312 312 307 304 303 303 302 298 296 295 294 294 295 298 301 303 303 303 304 303 304 307 311 311 311 311 309 308 306 304 302 299 299
305 307 311 313 314 315 317 320 321 324 325 325 324 323 321 321 323 324 323 323 322 321 321 321 322 322 322 321 321 322 322 322 321 321 321 321 321 320 320 319 319 319 320 317 315 313 312 310 308 310 311 314 312 308 307 303 302 299 299 296 295 295 295 292 291 294 298 299 300 301 301 301 300 302 303 303 305 303 301 300 298 298 297 297 297
304 305 308 311 313 314 314 316 319 321 322 324 324 321 320 321 322 323 323 322 321 321 321 321 321 322 321 320 321 322 322 320 321 321 321 321 321 320 319 320 319 319 320 319 317 314 313 312 309 309 310 310 310 307 305 304 302 300 300 297 295 296 297 294 291 292 296 297 298 299 299 299 298 299 299 298 297 297 297 297 297 296 296 296 296
302 304 306 308 310 312 314 315 316 318 321 321 321 321 321 320 321 322 322 322 322 322 321 321 321 321 320 320 320 321 320 320 320 320 321 321 320 320 319 319 319 319 319 318 318 316 312 311 304 308 309 309 303 305 305 301 299 298 298 296 296 295 295 295 294 292 294 297 297 297 298 298 298 298 298 297 296 296 296 296 296 295 295 295 294
299 302 304 305 307 309 311 313 315 316 317 320 321 321 322 322 322 322 322 322 322 322 322 322 315 321 320 320 321 320 320 319 319 319 320 319 319 319 318 319 319 319 318 318 317 316 315 313 309 302 302 297 294 299 301 298 295 294 293 294 294 294 293 294 296 294 293 295 295 295 295 296 296 297 297 296 296 295 295 295 294 294 294 293 293
296 299 302 303 304 306 308 310 312 313 316 317 317 317 319 320 322 322 321 321 320 321 321 321 322 322 321 321 321 321 320 319 318 318 318 318 318 318 318 318 318 317 316 316 316 316 316 314 306 298 297 297 294 292 294 297 296 293 292 292 292 293 292 291 293 293 292 292 292 292 293 294 295 295 295 295 295 294 294 294 294 293 293 292 292
294 296 299 302 304 306 307 308 310 312 313 314 315 317 317 318 319 318 318 319 319 320 321 322 322 322 321 321 320 320 319 319 318 317 318 318 318 318 317 317 317 315 315 316 315 314 313 313 308 304 302 296 297 297 291 292 293 294 293 291 289 289 290 291 290 293 293 292 293 292 291 290 292 292 294 294 294 294 294 293 293 293 293 292 291
293 295 297 299 302 304 305 305 306 308 309 311 312 312 313 314 314 314 315 315 314 315 315 318 318 318 319 318 317 318 319 319 319 318 318 317 318 317 317 317 316 315 314 312 310 312 313 313 310 302 298 296 291 287 289 290 291 291 290 291 292 290 289 290 291 291 291 290 289 289 291 291 291 291 293 294 294 294 293 293 293 293 292 291 291
294 295 297 298 299 301 302 304 304 305 306 308 311 311 311 312 313 312 313 313 313 313 314 313 313 314 315 315 317 317 317 308 305 307 309 310 318 316 316 316 315 314 313 312 312 311 310 308 303 296 295 294 294 291 290 291 293 296 294 291 292 290 288 288 289 289 290 288 288 288 289 288 288 288 288 287 288 293 293 293 291 292 292 291 290
293 294 295 295 296 297 300 302 303 304 304 306 301 297 297 304 309 311 311 311 312 311 310 309 310 312 315 316 316 304 303 301 300 300 301 302 304 314 318 316 315 314 313 312 311 309 309 306 306 296 294 296 293 292 292 293 294 290 290 291 289 287 288 287 288 287 287 287 286 286 287 289 288 288 288 288 290 290 289 290 287 288 290 290 290
292 293 294 295 295 296 298 300 301 303 304 304 296 298 297 296 299 304 307 309 310 308 309 311 312 312 313 314 315 308 302 299 301 298 299 300 300 300 303 305 307 316 313 311 310 309 308 309 307 299 300 299 296 293 294 293 292 292 292 290 288 287 287 286 285 286 287 287 286 285 285 287 287 286 286 287 288 288 288 287 291 291 290 290 290
291 292 293 294 295 296 298 298 300 301 301 297 297 296 296 295 294 298 302 304 306 307 305 305 305 306 306 308 308 312 311 311 312 311 304 299 299 299 299 299 299 300 304 311 311 309 307 308 306 301 300 301 299 293 293 292 292 291 291 290 289 288 287 287 286 285 286 287 286 285 284 286 286 286 285 286 287 287 287 290 291 290 290 289 289
290 291 291 293 293 295 295 296 296 298 300 296 295 295 294 294 294 295 300 302 302 303 301 302 302 302 302 302 302 301 306 299 299 301 301 300 297 295 295 295 296 297 297 298 298 305 309 307 306 300 300 301 297 295 293 293 292 290 289 289 288 288 288 287 286 285 285 286 285 284 283 285 285 284 285 286 286 286 288 291 290 290 290 289 288
289 290 290 291 292 294 294 294 295 295 295 294 295 294 293 293 294 294 298 300 300 298 299 298 297 297 297 297 298 299 295 295 296 299 300 297 298 298 294 291 290 288 289 288 290 292 296 306 307 305 302 297 299 295 293 294 294 292 290 290 288 287 287 286 286 285 286 286 283 284 283 284 284 284 283 284 285 285 284 289 290 289 288 287 288
288 289 289 290 291 292 294 294 294 293 295 295 295 294 293 294 294 293 297 299 298 296 292 291 292 293 293 294 294 294 293 293 293 294 295 296 294 292 289 287 286 286 286 288 288 289 292 299 302 299 296 296 296 295 294 296 297 296 295 293 290 289 286 285 285 284 284 285 284 283 280 283 283 282 283 282 283 282 282 289 288 287 287 288 287
288 288 289 289 290 291 292 293 293 292 292 294 294 294 293 293 294 293 296 297 292 290 289 288 289 289 289 290 291 290 291 292 292 293 294 293 293 290 288 287 286 286 286 288 290 291 290 290 290 290 291 292 294 294 294 294 291 289 288 287 287 286 285 284 282 283 281 283 283 282 281 282 283 281 281 281 282 281 281 280 288 287 288 286 286
286 286 287 288 290 290 291 291 292 292 292 291 291 292 292 293 292 292 292 291 290 290 288 288 288 288 288 288 289 290 290 291 290 293 294 292 292 290 288 286 286 286 285 287 289 290 290 290 291 291 291 292 292 292 292 291 289 289 288 286 285 285 284 282 282 281 281 282 282 282 281 279 281 279 280 280 280 280 280 280 282 286 286 285 285
285 286 287 288 289 290 290 290 291 291 291 290 290 291 291 291 289 289 291 291 289 289 288 288 288 288 288 286 286 288 288 289 290 293 294 292 291 289 287 286 285 284 284 285 286 286 288 288 288 288 289 289 288 288 289 289 289 288 289 286 285 285 283 283 282 281 281 281 281 282 279 280 279 279 277 278 278 278 279 279 280 283 284 284 284
285 286 286 287 288 289 289 289 288 289 290 289 290 290 289 290 288 289 290 290 289 288 288 288 288 287 288 288 287 287 288 289 291 293 294 292 290 289 288 287 285 284 284 285 285 285 285 285 284 284 283 284 284 284 284 286 285 285 285 285 285 284 283 283 282 280 278 279 280 281 278 278 277 278 276 272 271 275 278 278 279 277 277 277 277
Wind_Speed
6 5 5 6 6 7 7 7 7 7 7 7 8 7 6 6 7 7 7 7 7 7 7 5 5 5 5 4 4 4 3 4 4 4 4 6 7 7 11 13 14 15 15 15 15 16 17 17 17 17 17 18 17 17 17 17 17 17 16 17 17 18 17 17 16 16 16 15 15 15 15 15 14 14 15 15 15 15 15 14 14 14 13 13 13
6 6 5 5 5 6 7 7 7 7 7 7 7 8 7 7 6 7 7 7 7 7 6 6 5 5 6 7 7 6 4 4 4 5 5 6 6 6 11 13 14 13 15 15 16 16 17 17 18 18 19 18 19 18 18 18 18 18 18 18 18 18 18 17 17 16 15 16 15 15 15 15 13 13 14 14 15 15 15 14 13 12 13 12 12
6 7 7 6 6 6 6 6 7 6 6 6 6 7 7 7 7 6 7 6 6 5 5 6 5 5 5 6 6 6 5 5 6 6 6 7 7 6 7 12 14 15 15 17 17 17 17 18 18 19 19 19 19 19 19 19 19 19 19 19 19 18 17 17 17 17 17 15 14 15 14 14 14 13 13 14 14 14 14 14 13 12 11 11 9
7 5 7 7 6 6 6 6 6 6 7 6 6 5 5 4 5 4 4 4 4 4 4 4 4 6 5 5 5 6 6 6 5 4 4 4 5 6 6 7 13 16 16 17 18 18 18 19 19 19 19 19 19 19 19 19 19 19 19 19 19 19 18 18 17 16 15 15 15 15 15 13 12 13 12 11 11 13 12 11 10 10 10 9 9
6 6 6 7 7 7 7 6 7 6 6 5 5 5 4 5 4 4 4 4 4 5 5 5 5 5 5 5 6 6 6 5 6 6 6 5 6 6 6 6 5 13 17 17 17 18 19 19 19 19 19 19 20 20 20 20 20 20 20 20 20 20 19 19 17 16 16 15 15 13 12 13 13 13 12 13 12 11 11 9 9 8 8 8 8
7 6 6 7 7 8 7 7 7 5 5 6 6 5 6 5 5 5 6 6 5 4 5 5 6 5 5 4 4 6 6 7 7 7 7 7 7 6 7 6 7 7 8 15 17 18 19 19 19 19 19 19 20 20 20 20 20 20 20 20 19 19 18 17 17 16 15 15 14 15 14 13 12 12 12 11 10 10 9 9 9 9 9 9 9
8 7 6 6 7 7 8 7 7 6 7 6 7 6 5 5 5 6 4 5 4 6 5 5 4 5 5 4 5 5 6 7 8 8 7 7 7 7 7 7 7 7 7 7 12 18 18 17 19 19 19 19 20 20 20 20 21 20 21 20 20 20 19 19 18 16 16 15 15 14 13 12 11 12 11 10 10 9 9 10 10 9 8 9 8
8 8 7 6 6 7 7 7 8 7 7 6 6 6 6 6 6 6 6 6 6 6 5 6 5 5 4 6 6 7 7 7 7 7 6 6 6 7 7 7 8 7 7 7 7 9 17 17 18 19 19 18 18 19 20 20 21 21 21 21 20 20 20 19 17 16 15 15 14 13 13 12 11 11 11 11 10 10 10 10 9 9 10 10 10
10 8 8 7 7 6 6 7 7 7 7 7 7 7 6 7 6 6 7 7 7 7 6 6 6 6 6 7 7 7 8 8 7 7 6 8 9 9 8 8 9 10 9 8 7 7 10 16 16 17 17 17 16 18 18 20 22 22 22 21 21 20 19 18 18 17 15 14 14 13 12 11 10 10 10 11 11 10 9 10 10 10 10 11 11
9 9 8 8 7 6 6 7 7 8 8 8 8 8 7 7 8 7 7 6 7 8 8 6 6 6 7 8 8 7 7 6 6 7 7 8 8 9 8 7 8 8 7 7 7 7 6 9 14 16 18 17 16 16 19 19 20 22 23 23 21 20 20 19 18 17 15 14 12 11 11 11 11 10 10 9 9 9 10 10 10 10 10 10 11
8 9 9 8 7 6 6 6 6 7 8 8 8 9 9 8 8 8 7 7 6 6 7 7 7 7 8 9 8 9 8 7 6 7 8 9 9 8 6 8 8 8 8 8 8 7 7 8 7 7 9 14 15 16 18 20 20 19 22 23 22 21 20 19 18 17 15 12 12 12 12 10 9 9 9 10 10 10 10 10 10 10 11 11 11
9 9 9 9 8 7 6 6 7 7 8 9 9 9 11 10 10 9 7 6 6 6 5 5 5 7 8 8 8 8 9 9 9 10 9 9 8 7 8 7 8 8 8 7 7 6 7 7 6 6 6 9 15 16 17 17 16 17 19 22 22 21 19 19 19 17 15 13 14 12 10 10 10 9 9 10 11 12 12 12 11 11 11 12 12
8 10 10 10 9 8 8 7 7 8 9 11 10 9 9 9 8 8 9 8 8 7 5 4 4 5 4 5 6 7 9 9 10 9 9 8 7 7 7 7 8 9 8 7 7 7 7 7 7 6 6 5 8 14 16 15 16 16 18 20 21 20 20 19 18 17 16 14 12 11 11 10 8 8 8 9 10 12 12 12 12 12 12 12 11
7 9 10 11 10 9 10 11 10 9 10 8 8 8 8 9 8 7 8 10 7 8 8 5 6 8 5 4 6 7 8 8 10 10 9 8 7 7 8 9 10 9 7 7 8 8 7 7 6 6 6 6 5 5 7 10 11 14 16 19 20 20 20 19 18 17 15 11 9 9 10 10 9 9 9 10 10 11 12 13 13 12 12 12 12
9 8 9 10 12 11 11 11 11 10 9 10 10 10 10 10 10 10 8 7 7 6 10 11 9 5 2 2 6 3 5 7 10 12 11 9 7 9 9 9 10 8 8 8 8 6 5 6 6 6 5 5 6 6 6 7 9 12 15 17 18 20 19 19 18 17 15 12 9 8 9 10 10 10 10 11 11 11 11 11 11 11 12 12 12
10 10 8 10 11 11 10 9 10 10 10 10 11 12 11 10 10 11 8 8 9 10 10 11 9 9 6 10 4 2 3 9 10 10 11 12 11 11 9 10 10 9 8 8 7 6 6 6 8 7 6 6 6 6 7 6 11 14 15 16 16 19 19 19 18 17 16 12 9 9 9 9 10 10 11 11 11 11 11 12 11 12 12 11 12
8 10 10 11 11 10 10 10 10 10 10 11 11 12 12 11 11 11 12 11 10 8 9 10 12 10 7 5 2 3 7 4 6 6 7 9 12 11 10 11 10 10 8 7 6 7 6 6 7 6 7 7 7 7 7 6 8 8 11 15 17 18 18 19 19 18 16 13 12 13 13 12 11 12 11 12 12 11 11 12 12 11 11 11 10
10 8 9 8 10 11 11 11 11 10 10 11 10 10 12 13 14 13 13 12 9 8 7 9 11 12 11 6 5 5 4 3 3 4 2 9 8 10 11 10 9 8 7 7 7 7 7 7 6 8 8 8 7 7 7 7 6 7 6 8 17 17 18 19 19 17 16 15 13 12 12 12 12 12 12 12 11 11 11 10 10 9 9 9 8
12 11 10 10 9 9 10 10 10 11 10 10 11 12 12 13 11 12 13 12 10 9 12 10 8 9 13 14 11 4 1 0 4 1 1 3 4 7 8 8 7 7 8 8 8 7 7 7 7 7 8 7 7 7 7 8 7 8 10 11 14 16 18 18 18 17 16 15 14 13 13 12 12 12 12 11 11 10 8 7 6 6 6 6 6
12 12 13 12 11 10 10 10 10 10 10 11 13 12 10 10 12 13 11 10 13 13 10 9 13 12 13 12 12 10 4 4 3 1 1 3 5 4 5 8 6 8 9 9 8 9 8 8 9 7 6 7 7 7 7 8 6 6 8 14 15 17 17 17 16 15 16 15 14 13 12 12 12 12 12 11 11 9 6 6 6 6 6 5 5
12 13 14 14 13 12 12 12 11 11 10 10 11 12 13 12 12 13 13 13 12 13 10 9 12 12 10 11 11 10 8 6 5 4 6 4 5 7 8 4 5 8 9 7 8 8 9 9 9 9 8 8 8 8 7 7 7 6 7 12 15 16 17 16 15 16 15 14 14 13 12 13 12 12 12 11 9 9 9 9 8 7 7 5 5
10 12 12 13 14 13 13 14 14 13 10 10 10 12 13 13 14 14 13 12 10 11 14 11 9 8 10 9 9 9 8 6 8 9 7 7 8 6 7 8 9 9 7 9 10 9 9 8 8 8 9 8 7 8 8 7 6 6 8 12 12 14 14 14 15 14 15 14 13 13 13 5 3 7 10 9 9 10 10 8 6 6 6 5 4
8 9 12 13 13 14 14 14 14 13 13 12 11 11 12 12 12 12 12 14 12 12 11 11 9 9 10 10 12 13 13 13 13 11 11 8 8 10 7 7 10 6 8 10 9 10 9 9 8 8 9 8 7 8 8 7 8 7 11 13 13 12 13 13 13 14 13 14 13 12 12 10 9 8 8 7 7 7 7 7 7 6 5 5 5
9 9 10 13 13 12 13 14 14 14 15 14 13 11 9 9 9 10 11 13 12 12 11 12 13 11 10 10 11 11 9 9 9 9 10 11 10 9 8 6 5 6 2 7 9 9 9 9 9 9 8 8 8 7 8 8 7 11 9 11 11 11 11 12 12 13 12 13 13 12 12 12 12 11 10 9 8 8 8 8 7 6 5 4 4
9 10 9 10 11 12 13 13 12 13 13 13 14 14 11 10 10 11 11 13 13 14 13 13 13 12 11 9 8 9 11 9 7 7 8 6 7 8 7 5 8 4 4 4 5 7 8 9 10 9 7 8 8 7 7 7 6 10 13 8 12 10 11 12 11 11 10 10 11 13 13 13 13 12 11 11 9 8 8 7 6 5 5 4 3
11 11 10 10 10 12 13 14 14 14 14 15 14 15 15 12 11 11 13 12 12 15 15 13 12 13 10 9 9 10 10 8 9 7 8 8 9 10 7 5 6 8 3 4 4 5 6 9 9 8 8 8 8 8 7 8 7 12 14 9 10 11 10 10 10 10 10 10 10 10 10 10 11 10 10 9 9 8 7 7 6 5 5 4 4
11 10 10 9 9 10 11 12 13 14 14 14 13 14 14 14 13 13 12 11 12 13 14 15 14 15 15 13 11 9 9 9 9 10 8 9 9 8 8 8 6 7 7 6 5 10 8 6 8 8 8 9 8 8 8 7 10 15 13 9 7 12 11 9 9 10 9 10 9 9 9 9 9 9 9 9 9 8 8 7 6 6 5 5 5
13 11 11 9 9 10 11 12 13 13 14 14 14 13 13 13 13 14 15 11 12 14 13 14 16 17 16 15 12 13 10 9 9 10 10 9 8 7 8 8 9 9 6 8 7 8 6 6 5 9 8 9 9 8 10 11 9 15 13 8 7 8 11 11 10 10 10 9 9 8 8 8 8 9 9 9 9 9 8 8 7 6 6 5 5
13 12 11 11 10 9 10 12 14 13 14 14 14 14 14 14 13 14 15 14 14 15 13 12 13 14 13 15 14 12 12 11 10 10 10 10 10 9 9 10 9 9 7 7 9 8 6 7 6 6 8 8 8 7 7 7 9 13 9 8 8 7 10 12 11 11 10 9 8 8 7 8 8 8 9 9 10 9 9 8 8 7 6 6 6
13 13 13 13 11 11 10 11 11 11 12 12 13 14 15 14 15 14 14 13 13 13 14 14 14 12 13 13 13 12 12 12 12 11 10 11 10 10 10 9 8 10 9 9 9 7 5 6 8 6 7 9 7 7 7 8 12 14 9 8 8 8 12 13 12 10 10 9 8 7 7 7 7 8 8 9 9 10 9 9 8 7 7 6 5
12 13 14 14 13 12 11 11 11 12 14 14 13 13 14 13 14 13 14 13 13 13 13 13 12 12 13 14 13 12 11 12 12 11 10 10 10 10 10 8 9 9 9 7 10 6 6 7 8 7 7 8 7 7 5 6 10 13 9 8 8 11 14 10 12 10 9 10 9 8 8 8 7 8 8 9 9 10 9 9 8 7 6 4 1
13 12 13 14 15 15 12 11 12 13 12 12 12 12 13 14 13 13 13 14 14 13 12 11 9 10 12 13 13 12 11 10 10 11 11 11 10 10 9 9 9 9 8 9 12 11 5 6 7 8 7 7 7 8 6 5 7 11 8 7 8 12 8 6 10 12 11 12 12 10 9 8 7 8 9 10 10 10 9 8 7 5 3 3 3
15 14 13 14 14 13 14 14 13 13 13 14 14 14 12 11 12 12 13 13 14 13 10 10 11 10 10 11 12 12 10 10 10 10 10 10 10 9 9 8 9 9 9 10 12 11 6 1 3 7 6 7 6 7 9 7 7 6 7 7 9 8 7 7 7 11 12 12 11 11 10 9 7 6 8 9 9 8 7 6 4 2 4 3 1
13 15 15 13 12 14 13 13 15 13 13 13 13 13 13 15 15 12 12 13 13 12 12 14 13 12 14 15 14 12 12 13 12 11 10 10 9 9 9 10 10 10 10 11 11 10 12 4 3 1 4 6 8 5 11 10 8 6 9 9 7 8 8 7 6 6 11 11 11 12 11 11 8 6 5 5 5 5 4 3 3 3 3 2 2
12 12 14 14 14 14 13 12 11 12 12 13 12 12 11 11 12 13 12 13 13 13 14 14 14 13 12 11 10 11 10 12 13 12 11 11 10 10 11 10 12 12 11 12 10 11 11 8 5 5 7 7 8 8 7 7 8 8 9 9 9 7 6 7 7 5 10 10 11 11 11 11 10 9 7 6 4 4 4 3 3 3 2 2 2
14 12 12 14 15 14 13 12 12 11 13 13 13 13 13 13 15 14 14 14 15 15 15 15 14 13 12 12 13 13 11 12 13 11 10 10 10 11 11 11 11 11 10 8 10 9 6 8 5 8 8 9 4 3 4 5 5 5 4 2 3 6 7 6 7 7 9 11 11 10 10 10 11 10 9 7 6 5 4 4 3 3 2 1 1
15 14 12 11 12 12 12 12 12 11 12 12 13 14 14 13 16 17 17 16 16 15 15 14 13 12 13 14 14 12 10 11 10 10 10 12 11 10 11 10 11 11 8 9 9 9 10 11 8 4 3 2 2 2 7 8 5 4 2 4 5 5 5 3 3 5 9 10 9 9 8 9 10 10 9 7 6 6 5 4 4 3 2 1 1
16 14 13 11 10 12 12 12 12 12 11 10 10 9 11 10 12 16 14 13 11 12 13 13 13 12 12 12 11 11 12 13 12 11 10 11 11 11 12 10 9 7 8 10 11 12 13 12 8 3 2 6 2 1 4 7 9 7 3 3 2 2 3 3 3 3 4 5 5 4 6 7 9 9 8 7 7 6 5 4 3 3 3 1 0
15 15 13 13 11 10 11 11 11 11 12 11 9 8 7 10 11 8 8 12 15 15 14 13 12 12 12 11 10 10 11 12 11 10 10 10 10 12 12 11 10 10 10 11 10 10 10 10 8 9 8 5 4 7 2 3 4 4 10 8 4 2 4 7 7 4 4 4 4 7 7 6 7 6 7 8 7 6 5 4 4 3 3 1 1
14 14 14 14 13 10 10 11 12 11 10 11 10 9 6 7 5 5 4 5 4 3 3 5 6 6 6 6 7 8 9 10 9 9 9 9 9 10 9 9 10 11 10 8 7 9 10 10 10 7 6 7 3 3 4 4 4 1 4 7 12 10 8 6 4 6 4 5 4 3 4 5 5 5 6 6 7 6 6 4 4 3 2 1 1
12 13 13 13 13 13 11 10 11 10 9 9 8 8 8 7 6 3 4 5 5 5 5 4 3 3 4 5 6 6 8 10 12 11 11 11 9 9 8 7 7 8 7 7 9 10 9 8 6 2 5 6 7 8 7 8 13 17 11 7 6 5 5 5 2 2 2 3 2 3 3 4 3 4 3 3 4 5 4 5 3 3 3 1 2
13 12 13 12 11 12 12 11 10 9 9 7 9 13 12 8 7 5 4 3 3 3 3 4 4 4 5 5 5 9 10 12 13 14 14 14 14 13 10 9 10 10 10 11 10 9 8 8 9 7 7 8 8 9 10 12 7 4 7 6 5 4 7 5 1 1 2 5 3 3 2 3 4 3 4 4 2 4 3 3 3 3 3 0 4
13 12 12 13 12 11 10 10 10 9 8 8 13 12 11 11 7 6 5 4 3 3 4 7 8 8 8 9 8 8 9 9 8 12 14 15 15 15 15 15 14 13 10 10 9 8 10 12 10 9 11 11 10 10 12 10 7 9 9 9 9 8 8 6 4 2 0 5 3 2 2 1 4 2 2 2 3 3 3 4 7 6 1 3 4
14 11 11 12 12 11 10 9 9 8 8 9 11 9 9 9 6 4 4 4 4 3 3 2 2 3 4 4 4 5 5 7 7 8 11 14 15 16 16 15 13 13 13 12 11 11 12 12 11 12 12 12 12 10 10 8 10 7 6 7 9 9 9 7 5 5 2 6 4 2 1 1 3 3 1 2 4 4 4 7 7 1 1 3 4
14 14 12 11 11 11 10 9 9 9 8 7 5 7 7 6 6 4 3 3 3 4 3 4 4 3 2 2 2 2 2 3 4 3 2 2 4 6 9 9 8 6 8 12 13 8 8 10 9 8 12 12 10 11 11 10 6 8 7 7 5 5 4 5 6 4 3 6 6 3 2 1 4 3 2 2 4 3 4 4 2 2 4 3 3
14 14 14 13 11 10 10 9 9 8 7 8 9 7 8 6 5 4 3 3 3 2 2 1 1 1 2 2 3 3 3 3 4 5 5 5 4 2 0 2 3 6 8 9 9 10 9 9 10 13 12 8 13 10 10 12 13 12 11 10 7 7 6 5 3 5 4 4 6 4 1 1 2 4 4 0 2 3 3 3 4 5 3 2 4
14 14 13 14 13 9 8 8 8 8 7 11 10 9 9 8 6 5 4 4 3 1 0 0 0 0 1 1 2 3 4 4 4 4 4 4 3 2 3 4 6 6 7 6 5 4 4 4 6 5 2 6 4 10 13 13 15 13 14 13 12 9 9 8 7 6 5 2 3 2 3 2 0 3 3 2 2 2 1 3 4 5 3 6 4
12 12 12 10 11 12 10 7 8 9 7 10 8 7 8 7 8 5 5 3 2 1 1 1 1 0 0 1 2 3 3 4 6 7 6 3 4 4 5 5 5 6 7 7 8 10 9 8 8 8 6 4 5 7 8 7 7 8 11 12 11 10 9 7 5 2 3 1 2 2 2 2 0 3 2 1 0 2 2 0 2 4 7 4 3
13 14 13 12 11 11 12 9 7 7 7 5 7 8 8 8 7 6 2 1 1 2 1 1 1 1 1 1 1 3 3 4 4 4 5 7 5 6 7 6 5 6 6 6 14 18 19 20 22 24 24 22 21 20 17 13 7 8 10 10 8 7 8 6 3 4 2 2 2 2 2 2 1 2 1 2 1 3 3 0 2 5 5 4 5
14 14 13 13 13 10 9 11 8 7 8 7 10 9 5 7 6 6 3 1 0 0 0 1 1 1 1 1 1 1 2 3 3 5 7 8 6 7 8 8 8 8 6 4 8 11 17 18 19 20 20 19 20 20 21 20 17 8 5 10 8 8 6 6 5 3 3 2 1 1 3 2 2 1 1 3 2 2 1 1 3 3 6 7 8
11 12 12 11 13 13 9 8 10 9 8 7 6 3 4 6 4 4 3 1 1 0 0 1 0 1 1 2 2 1 2 3 5 6 8 8 6 7 7 8 8 8 7 6 9 10 9 11 10 12 13 12 12 12 14 19 16 12 10 7 5 6 7 6 7 6 3 2 2 1 4 2 3 0 2 1 1 2 1 3 3 5 4 3 4
Wind_Direction
203 216 191 186 182 185 192 196 186 192 189 189 191 207 217 196 192 198 197 197 204 208 197 194 185 187 191 216 225 222 219 212 209 214 214 217 220 219 209 212 213 222 233 240 243 244 244 243 242 242 242 241 242 242 242 244 246 249 251 253 256 258 261 263 261 261 261 263 265 267 267 267 269 268 267 268 272 272 272 269 270 275 279 285 285
197 204 198 201 196 193 192 192 189 190 190 193 186 192 209 212 199 194 194 196 197 203 188 194 195 190 192 199 204 208 211 219 224 228 225 215 216 226 224 215 217 218 226 233 238 242 244 244 243 243 242 241 241 242 242 245 247 250 252 254 256 256 257 259 262 265 266 263 264 266 270 270 266 266 265 265 266 267 266 268 272 280 280 280 279
202 194 195 196 199 198 197 188 189 192 191 201 196 191 194 197 199 198 199 197 197 193 184 192 199 203 194 188 194 190 200 213 220 220 221 222 219 218 224 216 212 216 220 228 234 238 240 242 244 244 244 244 244 245 246 248 249 251 253 255 257 259 260 260 261 260 261 266 270 270 267 264 261 259 259 262 267 267 266 269 275 272 272 269 267
206 202 190 189 195 196 197 192 197 195 189 193 200 200 193 200 198 195 196 182 191 199 201 199 212 208 199 195 185 187 198 212 226 231 231 232 230 228 227 225 218 217 221 224 229 232 235 238 241 243 245 245 246 246 247 248 249 251 253 255 257 258 260 260 262 264 266 265 262 260 258 263 268 269 273 271 261 262 271 278 275 271 269 267 270
204 208 198 190 192 194 197 196 193 191 191 189 191 195 194 198 210 201 205 198 190 202 201 203 206 213 199 200 185 194 196 200 218 226 229 235 239 235 238 238 232 222 224 225 226 228 231 234 237 241 244 246 247 248 248 250 251 252 253 255 256 255 254 256 258 260 258 256 257 261 265 262 262 262 260 258 258 263 269 272 272 274 281 284 281
203 216 205 196 192 193 193 194 189 187 189 190 193 190 192 191 203 191 206 199 203 206 196 212 216 211 202 197 190 199 198 206 212 214 214 223 226 231 234 235 236 231 222 226 225 226 227 231 234 237 242 245 247 249 250 251 252 253 253 254 254 256 258 257 254 252 253 253 255 256 256 258 256 256 256 254 257 259 264 264 263 262 263 265 268
197 209 217 205 199 197 194 191 184 183 188 190 182 189 187 198 192 194 200 205 205 210 203 212 215 217 214 204 217 219 214 213 211 211 211 216 220 229 230 235 235 234 224 214 225 226 228 230 233 237 240 244 247 249 251 252 253 254 254 254 254 253 251 250 253 253 250 252 253 253 253 253 252 251 252 253 253 256 255 254 256 260 268 271 274
192 201 214 213 207 205 199 187 183 179 184 185 178 187 191 196 202 186 192 205 196 214 201 211 214 222 219 213 216 216 221 221 213 212 215 218 228 234 233 238 245 244 236 220 204 217 224 228 232 236 238 240 242 246 249 250 252 252 253 252 251 251 252 251 252 252 251 251 251 251 251 250 250 250 247 247 246 244 248 252 254 260 263 267 271
195 200 208 213 216 209 203 192 183 181 181 183 187 191 188 195 209 204 188 196 196 203 209 205 214 221 222 225 222 217 220 216 214 216 215 222 227 228 230 233 239 243 237 232 229 221 213 222 230 233 237 237 237 239 244 251 251 251 250 249 249 249 249 252 248 249 247 244 246 248 249 248 247 248 247 246 246 247 243 244 251 255 259 263 265
198 202 212 215 215 213 207 197 189 186 183 184 191 187 193 187 202 209 201 195 198 197 202 202 210 223 227 228 230 230 231 223 219 218 217 226 224 222 221 228 235 237 233 229 228 223 228 220 222 228 231 232 232 235 239 244 249 249 248 247 247 246 243 243 246 244 244 242 242 245 246 248 246 243 242 238 236 235 241 249 250 255 259 263 264
198 199 207 212 216 216 208 205 193 191 189 189 189 188 191 193 194 203 206 203 199 199 195 195 208 217 222 224 223 228 234 232 228 230 232 232 225 223 218 230 238 241 237 231 224 222 224 228 223 221 230 232 233 232 235 240 246 250 248 244 243 242 243 243 244 243 241 242 244 244 241 230 228 233 231 232 233 233 236 246 251 255 258 260 262
204 201 204 207 212 215 215 206 199 194 199 201 200 195 193 194 199 191 196 210 208 211 206 201 215 219 223 225 221 224 226 222 223 227 229 223 222 216 225 229 231 236 231 223 218 219 219 221 220 207 206 222 228 233 237 240 242 246 247 242 239 238 236 237 240 239 238 238 237 225 218 226 235 240 245 248 248 248 250 249 252 254 258 261 264
205 203 206 205 206 208 215 217 204 201 205 213 210 205 198 196 193 185 188 195 211 202 212 191 223 258 250 242 249 233 228 219 222 223 222 221 214 215 224 231 237 234 231 225 225 224 223 222 219 215 216 215 224 231 231 233 235 234 238 239 234 234 234 235 236 236 235 231 220 221 226 224 220 229 239 244 248 253 255 257 259 259 257 260 263
218 207 204 200 201 206 211 216 212 209 211 210 212 213 206 200 190 196 197 195 205 188 198 168 226 219 219 271 275 257 240 230 230 229 224 219 213 218 224 229 232 233 231 221 220 216 216 212 213 217 220 224 218 207 227 234 236 230 231 235 232 230 231 233 233 233 234 228 226 210 214 223 231 238 244 251 254 258 262 264 263 262 262 263 264
221 214 209 204 204 206 209 208 211 209 208 207 206 210 209 205 198 199 197 204 204 191 192 193 211 183 168 325 255 246 265 238 235 230 223 222 217 225 226 227 228 223 224 217 211 209 209 208 210 209 213 222 226 226 218 222 221 220 222 226 229 229 228 228 230 232 229 226 224 226 237 242 244 246 249 255 257 259 259 258 258 258 257 257 260
218 217 216 214 210 210 207 205 208 208 208 208 205 208 206 206 200 201 187 196 203 213 198 195 192 151 193 207 223 168 284 234 220 231 216 219 219 225 222 228 229 229 217 208 204 206 217 212 211 208 215 221 221 221 219 211 218 217 216 217 221 224 227 225 226 226 226 227 229 238 244 247 248 251 255 257 258 257 256 256 255 252 253 258 262
229 221 216 218 216 215 212 212 211 208 208 211 210 209 206 205 201 200 199 199 203 206 209 201 200 197 170 134 233 237 222 240 179 245 194 214 220 218 219 222 224 221 209 215 209 209 213 217 215 210 208 212 216 220 229 222 215 213 213 211 212 217 222 225 224 224 226 226 228 233 238 243 247 249 250 252 253 256 257 257 254 256 262 267 273
237 237 229 218 217 215 215 215 215 213 208 210 211 208 208 205 204 203 205 205 197 189 205 212 209 206 220 224 161 167 190 242 135 259 220 211 209 211 214 215 213 207 210 211 209 213 213 222 210 210 209 211 211 216 223 234 209 196 196 206 211 212 216 220 224 225 226 228 232 236 239 240 243 246 248 250 250 251 255 259 260 265 262 266 273
229 233 234 229 223 220 219 220 219 218 212 209 210 210 211 211 206 206 208 203 193 201 202 199 198 220 221 231 253 252 149 75 214 107 271 273 230 212 221 215 208 206 213 215 210 207 214 218 221 210 207 205 207 212 222 228 210 199 193 200 207 211 214 216 219 223 227 231 235 236 238 242 243 243 243 242 244 246 246 244 244 251 259 261 267
224 222 228 230 226 223 222 225 228 226 218 216 215 213 213 213 210 211 209 202 201 210 207 180 187 213 211 221 235 250 229 233 241 210 198 196 240 252 242 220 212 218 217 215 209 210 212 216 220 217 208 206 203 208 216 216 215 199 201 203 206 211 211 210 213 219 227 233 238 241 238 240 241 241 238 236 234 236 235 233 234 239 244 249 248
222 222 218 219 219 223 222 223 226 230 228 227 222 215 212 209 208 208 207 205 204 208 207 200 195 207 188 215 219 231 235 221 250 212 225 218 243 203 222 228 228 230 224 214 215 212 210 212 212 210 210 212 206 212 214 212 209 205 195 194 205 208 208 209 214 221 228 233 237 236 235 237 239 237 237 236 234 229 225 223 229 236 242 238 243
227 224 220 218 218 216 219 222 224 227 232 236 231 222 216 212 209 209 209 209 208 206 209 212 208 203 195 193 200 212 228 240 222 226 235 221 223 215 207 195 213 228 212 217 217 217 215 211 206 207 208 205 201 206 212 210 206 196 196 184 188 196 202 210 217 222 228 232 233 234 233 196 179 228 235 231 229 226 227 221 205 220 229 235 244
230 219 222 219 219 217 216 219 222 225 227 234 238 231 222 217 212 205 205 206 207 211 214 217 216 206 196 193 202 198 199 202 208 209 209 207 221 240 231 210 216 226 217 214 214 218 215 210 208 208 207 201 198 199 201 204 200 194 188 189 188 193 202 207 214 219 223 228 228 224 227 216 218 222 211 189 186 188 189 199 208 213 218 230 248
246 239 224 219 217 218 216 217 218 220 223 226 233 240 238 223 213 207 208 208 209 211 216 216 213 215 209 202 207 207 210 212 215 211 202 216 210 225 221 232 261 229 206 207 219 214 214 212 211 211 202 195 201 195 195 197 194 171 167 177 174 183 195 205 208 216 216 222 224 224 226 230 226 223 225 217 200 198 199 200 203 204 211 225 233
246 245 238 221 221 218 214 215 218 218 221 222 227 235 239 231 223 218 213 209 208 209 212 214 209 212 216 211 207 208 216 218 212 205 215 215 209 227 231 199 229 247 239 194 217 219 214 217 213 212 202 201 199 198 189 186 175 173 162 172 178 180 192 201 202 205 208 215 224 226 227 228 229 230 227 220 206 199 196 192 189 194 207 208 217
262 251 243 223 220 223 219 215 213 213 213 215 219 222 229 233 230 226 222 219 215 212 213 211 210 214 213 219 216 210 215 210 213 209 206 197 211 217 216 220 217 238 233 223 219 214 242 223 212 207 202 199 200 194 196 175 169 177 167 163 181 183 186 194 195 197 201 208 211 215 216 216 214 212 210 206 202 191 180 181 185 190 193 198 213
280 271 257 247 223 224 236 233 217 214 210 211 214 217 219 224 229 232 232 224 220 215 214 209 209 208 209 213 218 220 214 206 205 213 206 209 209 205 193 217 233 229 237 229 231 217 222 215 201 209 203 199 197 194 190 177 177 174 170 162 173 182 175 174 183 186 198 202 207 212 213 211 210 213 210 202 188 181 181 186 188 187 192 202 214
290 280 274 261 246 219 220 225 227 219 212 210 210 211 212 217 221 222 227 226 225 220 217 213 215 211 209 210 213 220 218 211 206 209 211 214 211 200 197 207 220 240 215 235 226 241 203 204 225 214 201 199 198 196 191 170 169 172 167 166 167 175 175 177 181 188 193 196 200 200 204 209 211 210 206 188 182 187 188 186 185 191 198 202 211
293 289 278 267 263 247 226 231 227 223 217 210 209 210 211 213 219 220 222 219 221 224 222 219 218 213 213 208 211 214 214 217 215 212 213 214 217 214 207 211 208 227 227 231 229 222 243 208 209 229 212 196 195 192 169 167 169 168 173 169 166 168 178 177 177 183 186 183 187 191 199 205 204 201 196 190 187 187 185 185 190 196 194 200 203
300 296 291 281 265 254 241 229 241 242 234 222 209 209 211 214 216 219 220 218 218 220 220 220 218 213 214 211 210 213 210 210 215 213 213 213 214 215 215 213 201 218 222 233 248 194 221 219 212 222 211 207 190 177 172 171 172 172 171 161 165 171 178 175 174 175 178 170 174 182 185 189 191 192 192 190 187 184 185 187 191 190 194 198 209
297 299 299 294 281 262 251 242 233 235 233 230 219 211 210 215 215 217 217 216 217 218 217 216 216 213 212 214 211 214 208 211 214 214 215 213 217 216 220 214 216 222 226 227 255 227 192 215 222 217 189 200 181 163 154 160 175 176 166 160 167 170 169 171 170 167 159 162 167 160 166 173 182 185 187 189 187 182 183 189 188 188 193 204 141
305 299 297 295 294 287 267 244 232 222 229 241 247 233 218 215 214 214 214 212 216 219 217 214 215 213 214 218 218 217 212 213 215 214 215 215 216 219 220 222 225 224 224 232 239 250 202 224 201 213 192 179 167 159 157 148 174 184 160 155 156 153 158 166 170 163 164 167 166 159 161 159 167 181 187 189 185 182 180 182 182 186 186 93 64
309 304 299 297 295 291 288 271 247 236 229 225 227 227 226 223 216 213 212 211 215 216 213 213 214 210 215 220 222 222 213 214 215 214 216 213 212 217 218 220 226 221 221 229 240 252 251 266 190 208 193 156 179 174 157 160 166 181 158 146 152 161 161 170 175 175 170 162 153 149 149 146 156 174 185 181 179 174 175 172 159 125 83 79 79
310 307 302 297 293 293 286 280 271 252 234 226 223 222 222 224 222 213 212 209 210 208 214 220 214 210 209 207 212 215 214 216 216 216 216 214 212 212 214 216 223 226 219 228 237 244 248 220 241 198 175 188 180 185 171 166 178 173 167 163 171 166 167 163 164 176 175 161 151 153 150 149 156 166 155 143 154 144 127 109 103 109 108 100 51
304 303 305 303 298 293 288 282 278 269 256 246 235 229 226 233 230 221 214 211 210 211 215 216 214 213 215 216 219 218 215 219 218 217 212 213 211 214 217 216 223 225 221 219 227 234 235 228 189 179 193 194 190 188 188 186 176 179 176 175 170 167 167 167 163 160 175 161 154 154 153 156 162 168 166 164 153 154 161 158 151 136 121 98 47
308 302 301 304 304 301 294 289 284 280 272 256 243 236 223 214 228 225 218 214 211 212 210 209 211 209 205 209 214 213 210 217 217 215 213 212 211 214 219 220 222 225 222 221 220 232 231 241 211 195 197 186 204 160 144 120 145 178 181 131 133 156 156 162 160 156 170 159 155 154 158 162 166 172 174 175 180 180 188 182 162 141 124 95 50
314 308 302 301 300 300 303 302 298 287 279 276 260 240 230 221 220 221 218 211 209 209 206 207 209 210 210 213 213 208 210 221 218 215 212 214 216 217 221 223 225 226 224 225 230 228 235 237 229 202 166 92 33 123 151 149 128 122 123 173 187 163 140 118 117 147 155 155 149 151 163 167 170 174 177 182 190 199 194 185 161 142 130 122 39
315 310 302 298 295 298 297 298 299 299 294 281 278 277 263 252 235 222 212 214 217 214 208 208 207 205 210 213 214 206 207 215 221 221 218 221 220 223 226 223 221 221 222 225 223 225 227 228 191 155 160 164 131 140 195 159 155 148 131 134 114 119 130 135 151 152 156 150 143 156 168 174 174 178 182 190 202 207 201 180 164 149 142 144 303
313 309 308 302 295 294 298 301 297 296 296 297 288 265 253 260 260 255 236 227 214 209 208 205 207 206 205 207 208 208 213 216 219 219 218 220 220 224 224 224 222 219 222 219 216 219 221 225 212 185 179 204 174 185 207 157 166 174 171 158 170 204 176 178 180 176 150 138 154 159 168 173 178 179 193 200 207 206 199 181 165 168 162 175 271
313 309 308 308 305 296 295 296 294 294 295 295 296 296 278 263 259 253 252 268 270 261 227 206 199 205 213 217 215 211 214 216 215 216 212 220 219 228 221 219 214 213 218 224 232 230 227 226 216 197 186 168 136 73 83 109 166 237 207 177 184 187 193 186 194 164 153 148 153 155 163 147 161 181 202 211 209 205 196 183 171 161 172 208 278
309 308 307 308 308 305 296 291 294 295 295 292 290 293 299 306 301 270 228 220 223 214 213 221 209 202 207 210 212 212 211 214 212 210 211 211 214 225 220 216 224 224 231 228 222 213 215 221 233 161 165 182 186 155 162 180 194 203 184 174 176 130 118 112 58 90 128 143 155 162 187 175 174 205 195 204 224 203 189 169 156 167 191 203 332
310 310 310 308 306 304 301 296 293 298 299 296 299 309 315 313 304 308 309 278 239 224 221 219 221 221 225 227 223 218 215 214 218 221 223 219 215 217 218 209 217 220 222 220 214 214 217 217 211 170 179 210 190 191 189 209 196 75 128 159 142 124 117 126 181 242 126 118 137 190 220 184 160 190 169 194 218 167 173 157 166 134 131 344 336
314 312 310 310 308 303 302 300 297 295 295 299 312 326 330 337 330 310 306 309 316 295 259 235 236 232 232 232 231 223 225 235 234 230 227 229 230 230 228 215 207 206 212 220 222 214 211 216 206 186 205 206 201 193 201 192 181 184 165 148 132 137 147 144 192 310 111 128 134 152 264 228 137 188 246 177 157 159 158 154 150 146 131 356 334
318 314 310 309 308 308 306 303 299 294 290 293 304 318 329 331 343 322 316 311 296 277 272 264 246 225 220 223 227 221 217 218 220 228 234 237 238 239 241 245 251 253 242 220 214 211 207 213 208 202 201 206 201 184 194 173 185 162 160 151 154 156 162 165 151 167 207 126 146 134 268 333 130 143 210 222 172 176 167 144 143 85 339 315 347
315 315 312 308 306 307 308 310 308 304 298 297 299 304 296 297 307 313 298 294 291 297 311 315 312 309 307 296 301 297 282 273 255 266 279 295 286 259 258 262 263 273 298 302 296 269 212 221 217 207 202 204 191 201 187 177 133 133 131 142 160 158 156 155 157 123 145 138 117 119 177 233 135 144 190 258 165 145 132 125 107 244 283 336 10
314 312 313 310 303 301 302 301 300 297 298 297 287 279 270 266 263 252 259 256 251 264 278 344 2 2 347 325 281 274 273 251 228 213 213 221 225 224 116 47 48 29 22 4 355 328 299 244 221 214 214 175 200 179 167 152 152 165 167 169 157 151 153 146 114 114 124 120 139 135 68 313 120 119 168 293 112 114 143 159 222 261 298 73 95
311 310 310 311 308 302 299 303 304 300 296 294 277 270 277 281 273 258 246 239 227 191 100 106 98 255 291 278 259 260 273 272 266 246 238 225 189 133 79 64 55 40 30 14 350 340 340 310 285 277 185 202 174 157 170 174 174 174 172 170 162 143 118 106 80 79 74 56 100 87 174 198 93 96 222 161 89 110 218 239 263 275 120 116 100
305 303 301 299 300 304 301 296 295 293 289 300 303 286 289 291 286 271 255 209 158 152 138 124 133 148 223 232 254 250 249 252 256 232 218 176 145 120 108 90 76 60 49 33 68 75 77 71 62 49 17 39 96 141 138 132 102 93 84 84 92 113 122 115 116 122 74 17 81 111 126 159 193 126 242 238 71 289 295 336 281 134 123 108 71
305 306 305 304 300 298 299 296 285 281 286 294 310 299 298 305 300 280 260 210 170 158 154 157 127 97 65 355 272 263 255 255 256 224 210 162 145 140 131 113 100 85 69 48 65 74 77 75 74 75 73 62 55 49 50 57 87 112 106 100 119 133 129 128 93 88 113 110 348 90 116 135 10 113 303 297 301 261 280 271 109 124 105 75 38
304 302 303 304 301 294 287 290 285 290 288 281 282 281 293 313 308 287 267 252 336 73 93 68 67 76 64 27 23 274 275 268 267 219 197 165 153 148 140 132 120 112 111 102 86 74 75 73 72 77 79 80 76 67 56 42 24 1 113 137 155 130 129 132 130 119 119 79 283 20 93 187 100 74 137 288 336 290 319 96 126 84 62 42 22
290 295 299 297 297 296 288 279 286 283 280 280 275 260 288 308 300 278 256 175 211 226 176 10 69 64 8 75 43 334 277 271 242 226 188 169 153 153 146 126 125 127 145 145 117 108 95 84 66 71 61 54 65 72 70 64 49 38 39 68 95 121 134 138 127 116 97 264 229 288 140 210 104 187 135 27 12 296 55 103 84 59 46 54 22